Date String (YYYY-MM-DD hh:mm:ss) UTC,Instrument flags,Ambient pressure (hPa),Sample flow (lpm),Bypass flow (lpm),Sample temperature (°C),Ambient temperature (°C),ASC tube jacket temperature (°C),LED temperature (°C),Box temperature (°C),Sample RH (%),Span deviation,Mass concentration (μg/m³),Mass concentration (μg/m³),Mass concentration (μg/m³)
DateTimeUTC,F1_M11,P_M11,Q1_M11,Q2_M11,T1_M11,T2_M11,T3_M11,T4_M11,T5_M11,U1_M11,ZSPAN_M11,X0_M11,X2_M11,X1_M11
2022-05-12 16:00:00,,0819.2,5.00,0.00,29.5,28.8,00.0,38.4,31.3,18.2,-001.8,0030.96,0013.39,0009.79
2022-05-12 16:01:00,,0819.2,4.99,0.00,29.5,28.8,00.0,38.4,31.3,18.2,-001.5,0031.34,0013.08,0009.43
2022-05-12 16:02:00,,0819.3,5.00,0.00,29.6,28.8,00.0,38.4,31.4,24.2,-001.5,0031.80,0012.77,0009.15
2022-05-12 16:03:00,,0819.5,5.00,0.00,29.6,28.8,00.0,38.4,31.3,25.7,-001.5,0031.35,0012.53,0009.04
2022-05-12 16:04:00,,0819.5,5.01,0.00,29.6,28.8,00.0,38.5,31.4,24.0,-001.6,0030.64,0012.37,0008.91
2022-05-12 16:05:00,,0819.4,5.00,0.00,29.6,28.8,00.0,38.5,31.3,21.2,-001.5,0030.46,0012.14,0008.65
2022-05-12 16:06:00,,0819.6,4.99,0.00,29.6,28.8,00.0,38.5,31.4,23.8,-001.6,0030.09,0011.78,0008.36
2022-05-12 16:07:00,,0819.7,5.00,0.00,29.6,28.8,00.0,38.5,31.4,25.5,-001.5,0030.18,0011.75,0008.26
2022-05-12 16:08:00,,0819.7,5.00,0.00,29.6,28.9,00.0,38.5,31.4,24.6,-001.6,0031.69,0011.86,0008.31
2022-05-12 16:09:00,,0819.5,5.00,0.00,29.6,28.9,00.0,38.5,31.4,14.0,-001.7,0032.09,0011.77,0008.17
2022-05-12 16:10:00,,0819.6,5.01,0.00,29.6,28.9,00.0,38.5,31.4,22.5,-001.6,0032.19,0011.86,0008.22
2022-05-12 16:11:00,,0819.7,5.00,0.00,29.6,28.9,00.0,38.5,31.4,24.4,-001.6,0033.15,0012.17,0008.50
2022-05-12 16:12:00,,0819.8,4.99,0.00,29.6,28.9,00.0,38.5,31.4,24.3,-001.8,0033.27,0012.42,0008.73
2022-05-12 16:13:00,,0819.8,5.01,0.00,29.6,28.9,00.0,38.5,31.4,24.9,-001.6,0032.96,0012.48,0008.75
2022-05-12 16:14:00,,0819.8,4.99,0.00,29.6,28.9,00.0,38.5,31.4,20.7,-001.7,0033.01,0012.37,0008.59
2022-05-12 16:15:00,,0819.8,5.00,0.00,29.6,28.9,00.0,38.5,31.4,10.8,-001.5,0033.64,0011.87,0008.12
2022-05-12 16:16:00,,0819.7,5.00,0.00,29.6,28.9,00.0,38.5,31.4,08.1,-001.4,0034.68,0011.27,0007.62
2022-05-12 16:17:00,,0819.7,5.00,0.00,29.6,28.9,00.0,38.5,31.4,07.5,-001.3,0035.21,0010.84,0007.14
2022-05-12 16:18:00,,0819.7,5.00,0.00,29.6,28.9,00.0,38.5,31.4,06.6,-001.5,0035.39,0010.14,0006.46
2022-05-12 16:19:00,,0819.8,5.00,0.00,29.6,28.9,00.0,38.5,31.3,07.1,-001.4,0033.87,0009.41,0005.81
2022-05-12 16:20:00,,0819.7,5.00,0.00,29.6,28.8,00.0,38.5,31.4,06.6,-001.1,0032.61,0009.04,0005.47
2022-05-12 16:21:00,,0819.8,4.99,0.00,29.6,28.8,00.0,38.5,31.4,06.2,-001.1,0032.50,0008.58,0005.07
2022-05-12 16:22:00,,0819.9,5.00,0.00,29.6,28.8,00.0,38.5,31.4,06.1,-000.8,0031.00,0007.85,0004.43
2022-05-12 16:23:00,,0819.9,5.00,0.00,29.7,28.8,00.0,38.5,31.4,06.3,0000.6,0029.94,0007.24,0003.85
2022-05-12 16:24:00,,0819.9,5.00,0.00,29.7,28.8,00.0,38.5,31.4,05.9,0001.2,0028.50,0006.66,0003.27
2022-05-12 16:25:00,,0819.9,5.00,0.00,29.7,28.8,00.0,38.6,31.4,05.6,0000.0,0028.15,0006.06,0002.43
2022-05-12 16:26:00,,0819.8,5.00,0.00,29.6,28.7,00.0,38.6,31.4,05.9,0000.0,0028.05,0005.88,0002.11
2022-05-12 16:27:00,,0819.8,4.99,0.00,29.6,28.8,00.0,38.6,31.4,05.8,0000.0,0027.85,0005.94,0002.09
2022-05-12 16:28:00,,0819.8,5.01,0.00,29.6,28.7,00.0,38.6,31.4,06.0,0000.0,0028.02,0005.99,0002.08
2022-05-12 16:29:00,,0819.9,5.00,0.00,29.7,28.7,00.0,38.6,31.4,06.0,0000.0,0028.41,0005.99,0002.11
2022-05-12 16:30:00,,0819.9,4.98,0.00,29.7,28.7,00.0,38.6,31.4,06.3,0000.0,0029.19,0006.03,0002.14
2022-05-12 16:31:00,,0819.9,4.99,0.00,29.6,28.7,00.0,38.6,31.3,06.2,0000.0,0029.15,0006.01,0002.14
2022-05-12 16:32:00,,0819.9,5.00,0.00,29.6,28.7,00.0,38.6,31.3,06.1,0000.0,0027.80,0005.96,0002.15
2022-05-12 16:33:00,,0819.9,5.00,0.00,29.6,28.7,00.0,38.6,31.4,05.6,0000.0,0028.37,0005.98,0002.17
2022-05-12 16:34:00,,0819.9,5.01,0.00,29.7,28.7,00.0,38.6,31.4,05.5,0000.0,0028.14,0005.94,0002.16
2022-05-12 16:35:00,,0819.9,5.00,0.00,29.6,28.7,00.0,38.6,31.3,05.3,0000.0,0027.56,0005.87,0002.15
2022-05-12 16:36:00,,0819.9,5.01,0.00,29.6,28.7,00.0,38.6,31.3,05.5,0000.0,0026.77,0005.89,0002.17
2022-05-12 16:37:00,,0819.9,5.00,0.00,29.6,28.7,00.0,38.6,31.3,05.4,0000.0,0026.98,0005.93,0002.17
2022-05-12 16:38:00,,0819.9,5.00,0.00,29.6,28.7,00.0,38.6,31.3,05.4,0000.0,0026.26,0005.92,0002.17
2022-05-12 16:39:00,,0819.9,5.01,0.00,29.6,28.7,00.0,38.6,31.3,05.4,0000.0,0025.14,0005.85,0002.17
2022-05-12 16:40:00,,0819.9,4.99,0.00,29.6,28.7,00.0,38.6,31.3,05.0,0000.0,0024.54,0005.82,0002.17
2022-05-12 16:41:00,,0819.8,5.00,0.00,29.6,28.7,00.0,38.6,31.3,05.1,0000.0,0023.98,0005.81,0002.18
2022-05-12 16:42:00,,0819.9,5.01,0.00,29.6,28.7,00.0,38.6,31.3,05.0,0000.0,0023.13,0005.82,0002.21
2022-05-12 16:43:00,,0819.9,5.00,0.00,29.6,28.7,00.0,38.6,31.3,05.4,0000.0,0023.18,0005.86,0002.20
2022-05-12 16:44:00,,0819.9,4.99,0.00,29.6,28.7,00.0,38.6,31.4,05.5,0000.0,0023.77,0005.92,0002.19
2022-05-12 16:45:00,,0819.8,5.00,0.00,29.6,28.7,00.0,38.6,31.4,05.1,0000.0,0024.66,0005.91,0002.18
2022-05-12 16:46:00,,0819.7,5.00,0.00,29.6,28.7,00.0,38.6,31.4,05.0,0000.0,0025.33,0005.86,0002.17
2022-05-12 16:47:00,,0819.8,5.00,0.00,29.6,28.7,00.0,38.6,31.4,04.9,0000.0,0026.09,0005.86,0002.16
2022-05-12 16:48:00,,0819.7,4.99,0.00,29.7,28.7,00.0,38.6,31.4,04.6,0000.0,0026.21,0005.83,0002.15
2022-05-12 16:49:00,,0819.5,5.00,0.00,29.7,28.7,00.0,38.6,31.4,04.8,0000.0,0025.46,0005.72,0002.12
2022-05-12 16:50:00,,0819.6,5.00,0.00,29.7,28.6,00.0,38.6,31.4,04.7,0000.0,0025.47,0005.68,0002.13
2022-05-12 16:51:00,,0819.6,5.00,0.00,29.6,28.6,00.0,38.6,31.4,04.8,0000.0,0025.42,0005.60,0002.11
2022-05-12 16:52:00,,0819.4,5.01,0.00,29.6,28.6,00.0,38.6,31.3,04.8,0000.0,0024.50,0005.55,0002.08
2022-05-12 16:53:00,,0819.3,4.98,0.00,29.6,28.6,00.0,38.6,31.3,04.6,0000.0,0025.31,0005.57,0002.05
2022-05-12 16:54:00,,0819.3,5.00,0.00,29.6,28.6,00.0,38.6,31.4,04.7,0000.0,0025.38,0005.59,0002.05
2022-05-12 16:55:00,,0819.3,5.00,0.00,29.6,28.6,00.0,38.6,31.4,04.5,0000.0,0024.66,0005.43,0002.04
2022-05-12 16:56:00,,0819.3,5.00,0.00,29.6,28.6,00.0,38.6,31.3,04.5,0000.0,0024.42,0005.34,0002.02
2022-05-12 16:57:00,,0819.3,5.00,0.00,29.6,28.6,00.0,38.6,31.3,04.6,0000.0,0023.73,0005.30,0002.02
2022-05-12 16:58:00,,0819.3,5.00,0.00,29.6,28.6,00.0,38.6,31.3,04.5,0000.0,0023.32,0005.29,0002.02
2022-05-12 16:59:00,,0819.2,4.99,0.00,29.6,28.6,00.0,38.6,31.3,04.5,0000.0,0023.01,0005.20,0002.00
